Flag for U.S.A. Weather past 2 weeks in San Diego, California, U.S.A.

Now
70 °F

Passing clouds.


Feels Like: 71 °F
Forecast: 70 / 79 °F
Wind: No wind

Location: San Diego - North Island

Current Time: Aug 1, 2014 at 1:19:41 AM

Latest Report: Aug 1, 2014 at 12:52 AM


Visibility: 10 mi

Pressure: 29.92 "Hg

Humidity: 79%

Dew point: 63 °F

Location of San DiegoLocation

Historic Weather in San Diego — Graph

°F

San Diego temperature yesterday

Maximum temperature yesterday: 78 °F (at 1:52 PM)
Minimum temperature yesterday: 70 °F (at 11:52 PM)
Average temperature yesterday: 74 °F

Past Weeks' High & Low Weather Summary

 TemperatureHumidityPressure
High84 °F (Jul 28, 12:52 PM)87% (Jul 30, 1:52 AM)30.05 "Hg (Jul 30, 1:52 AM)
Low69 °F (Jul 25, 2:52 AM)49% (Jul 18, 11:52 AM)29.74 "Hg (Jul 24, 5:52 PM)
Average75 °F69%29.95 "Hg
* Reported Jul 16 11:52 PM — Jul 31 11:52 PM, San Diego, Weather by CustomWeather, © 2014

Note: Actual official high and low records may vary slightly from our data, if they occured in-between our weather recording intervals... More about our weather records

Advertising

San Diego weather history for previous 24 hours

 ConditionsComfort  
Time TempWeatherWind HumidityBarometerVisibility
11:52 PM
Jul 31
70 °FPassing clouds.No wind81%29.93 "Hg10 mi
10:52 PM71 °FPassing clouds.6 mph78%29.92 "Hg10 mi
9:52 PM71 °FPassing clouds.5 mph81%29.93 "Hg10 mi
8:52 PM71 °FPassing clouds.6 mph81%29.91 "Hg10 mi
7:52 PM72 °FScattered clouds.9 mph78%29.88 "Hg9 mi
6:52 PM73 °FScattered clouds.10 mph76%29.86 "Hg10 mi
5:52 PM76 °FScattered clouds.12 mph72%29.85 "Hg10 mi
4:52 PM77 °FScattered clouds.13 mph69%29.85 "Hg10 mi
3:52 PM77 °FScattered clouds.12 mph69%29.87 "Hg10 mi
2:52 PM78 °FPartly sunny.10 mph69%29.87 "Hg10 mi
1:52 PM78 °FPartly sunny.12 mph69%29.89 "Hg10 mi
12:52 PM77 °FScattered clouds.12 mph71%29.93 "Hg10 mi
11:52 AM77 °FScattered clouds.10 mph69%29.91 "Hg10 mi
10:52 AM76 °FScattered clouds.9 mph69%29.91 "Hg10 mi
9:52 AM76 °FScattered clouds.9 mph69%29.92 "Hg10 mi
8:52 AM74 °FScattered clouds.8 mph76%29.93 "Hg10 mi
7:52 AM73 °FPartly sunny.7 mph79%29.93 "Hg9 mi
6:52 AM72 °FPassing clouds.3 mph81%29.92 "Hg9 mi
5:52 AM71 °FOvercast.3 mph84%29.92 "Hg7 mi
4:52 AM71 °FFog.6 mph87%29.90 "Hg5 mi
3:52 AM71 °FFog.6 mph87%29.90 "Hg6 mi
2:52 AM71 °FFog.7 mph87%29.90 "Hg6 mi
1:52 AM71 °FFog.7 mph87%29.92 "Hg6 mi
Weather by CustomWeather, © 2014

See weather overviewHow to use our weather pages